Bonaire, Netherlands

8:53 AM AST on April 22, 2018 (GMT -0400)
Flamingo

Weather History for TNCB - June, 2012

Change the Weather History Date:

Monday, June 25, 2012

  Actual Average Record
Temperature  
Mean Temperature 84 °F -  
Max Temperature 88 °F 87 °F 91 °F (2005)
Min Temperature 80 °F 81 °F 75 °F (2008)
Cooling Degree Days 19    
Growing Degree Days 34 (Base 50)    
Moisture  
Dew Point 75 °F    
Average Humidity 74    
Maximum Humidity 84    
Minimum Humidity 63    
Precipitation  
Precipitation 0.00 in - - ()
Sea Level Pressure  
Sea Level Pressure 29.94 in    
Wind  
Wind Speed 12 mph ()    
Max Wind Speed 24 mph    
Max Gust Speed -    
Visibility 8.9 miles    
Events      
Averages and records for this station are not official NWS values.
T = Trace of Precipitation, MM = Missing Value Source: Averaged Metar Reports

Daily Weather History Graph

Daily Weather History Graph

Search for Another Location

Airport or City:

Astronomy

Jun. 25, 2012 Rise Set
Actual Time 6:10 AM AST 7:01 PM AST
Civil Twilight 5:47 AM AST 7:24 PM AST
Nautical Twilight 5:20 AM AST 7:51 PM AST
Astronomical Twilight 4:52 AM AST 8:19 PM AST
Moon 11:14 AM AST (6/25) 11:36 PM AST (6/25)
Length of Visible Light 13h 36m
Length of Day
12h 50m
Waxing Crescent, 34% of the Moon is Illuminated
Jun 25
Waxing Crescent
Jun 26
First Quarter
Jul 3
Full
Jul 10
Last Quarter
Jul 19
New

Hourly Weather History & Observations

Time (AST) Temp. Heat Index Dew Point Humidity Pressure Visibility Wind Dir Wind Speed Gust Speed Precip Events Conditions
12:00 AM 82.4 °F 89.5 °F 75.2 °F 79% 29.98 in - Calm Calm - N/A   Unknown
1:00 AM 82.4 °F 89.5 °F 75.2 °F 79% 29.95 in - North - - N/A   Unknown
2:00 AM 81 °F - 75 °F 76%  in - Calm Calm - -   Clear
2:00 AM 80.6 °F 86.2 °F 75.2 °F 84% 29.95 in - North - - N/A   Unknown
3:00 AM 80.6 °F 86.2 °F 75.2 °F 84% 29.95 in - North - - N/A   Unknown
4:00 AM 80.6 °F 86.2 °F 75.2 °F 84% 29.92 in - North - - N/A   Unknown
5:00 AM 80.6 °F 86.2 °F 75.2 °F 84% 29.92 in - North - - N/A   Unknown
6:00 AM 80.6 °F 86.2 °F 75.2 °F 84% 29.95 in - Calm Calm - N/A   Unknown
8:00 AM 84 °F - 75 °F 69% 30.00 in 19 mi East 19.6 mph - -   Partly Cloudy
8:00 AM 84.2 °F 92.3 °F 75.2 °F 74% 29.98 in 6.2 mi East 19.6 mph - N/A   Scattered Clouds
9:00 AM 86.0 °F 96.9 °F 77.0 °F 74% 29.98 in 6.2 mi East 21.9 mph - N/A   Scattered Clouds
10:00 AM 86.0 °F 95.1 °F 75.2 °F 70% 30.01 in 6.2 mi East 24.2 mph - N/A   Scattered Clouds
11:00 AM 85 °F - 75 °F 66%  in 6 mi East 21.9 mph - -   Clear
11:00 AM 86.0 °F 95.1 °F 75.2 °F 70% 30.01 in 6.2 mi East 21.9 mph - N/A   Scattered Clouds
12:00 PM 87.8 °F 99.7 °F 77.0 °F 70% 29.98 in 6.2 mi East 20.7 mph - N/A   Scattered Clouds
1:00 PM 87.8 °F 97.6 °F 75.2 °F 66% 29.98 in 6.2 mi East 20.7 mph - N/A   Scattered Clouds
2:00 PM 86 °F - 75 °F 64% 29.96 in 19 mi ESE 21.9 mph - -   Mostly Cloudy
2:00 PM 86.0 °F 95.1 °F 75.2 °F 70% 29.95 in 6.2 mi ESE 21.9 mph - N/A   Mostly Cloudy
3:00 PM 86.0 °F 96.9 °F 77.0 °F 74% 29.92 in 6.2 mi ESE 20.7 mph - N/A   Scattered Clouds
4:00 PM 84.2 °F 92.3 °F 75.2 °F 74% 29.89 in 6.2 mi East 20.7 mph - N/A   Scattered Clouds
5:00 PM 86 °F - 75 °F 63% 29.89 in 22 mi East 21.9 mph - -   Partly Cloudy
5:00 PM 86.0 °F 95.1 °F 75.2 °F 70% 29.86 in 6.2 mi East 21.9 mph - N/A   Scattered Clouds
6:00 PM 84.2 °F 92.3 °F 75.2 °F 74% 29.89 in 6.2 mi East 20.7 mph - N/A   Partly Cloudy
7:00 PM 82.4 °F 88.2 °F 73.4 °F 74% 29.89 in - North - - N/A   Partly Cloudy
8:00 PM 82 °F - 74 °F 70% 29.93 in 19 mi East 18.4 mph - -   Partly Cloudy
8:00 PM 82.4 °F 88.2 °F 73.4 °F 74% 29.92 in 6.2 mi East 18.4 mph - N/A   Scattered Clouds
9:00 PM 82.4 °F 88.2 °F 73.4 °F 74% 29.95 in 6.2 mi North - - N/A   Scattered Clouds
10:00 PM 82.4 °F 89.5 °F 75.2 °F 79% 29.95 in 6.2 mi North - - N/A   Scattered Clouds
11:00 PM 82 °F - 74 °F 71%  in 19 mi Calm Calm - -   Clear
11:00 PM 82.4 °F 88.2 °F 73.4 °F 74% 29.95 in - North - - N/A   Unknown